THORAD AGENA D DEB, 4651

Orbit data source: Space-Track

THORAD AGENA D DEB, 4651 is space debris in SSO originally from a launch on Wed, 08 Apr 1970 UTC launched from the Air Force Western Test Range (AFWTR). Debris objects in space refer to the collection of defunct objects orbiting the Earth. Examples of debris include non-operational satellites, rocket bodies, and fragments generated from explosions, collisions, or faulty payload assembly.

Loading next visibility...
THORAD AGENA D DEB details
Identifier
4651, 1970-025AK
Orbit
SSO
Last TLE update21 hours ago
Origin
Flag of USGSFC (US)
ManufacturerUnknown
MissionSpacecraft
Bus & MotorUnknown
MassUnknown
Launch date (UTC)
1970-04-08 (55 years ago)
Launch vehicleUnknown
Launch site
Air Force Western Test Range (AFWTR)
Object type
Payload
Rocket body
Debris
Shape & HBRUnknown
Radar Cross SectionSmall (<0.1 m²)

Expand to show TLE details & history

TLE from 21 hours ago
0 THORAD AGENA D DEB
1 04651U 70025AK  24360.58829677  .00002617  00000-0  17657-2 0  9991
2 04651 100.1472 243.5207 0043616  83.1519 277.4602 14.01052901760243
Epoch: 2024-12-25T14:07Z
Definitive object data (Epoch: 2024-12-25T14:07:08.84Z)
Latitude-0.00002°
Longitude-62.84602°
Altitude889.01 km
Speed7.41 km/s
True Right ascension16h 14m 04s
True Declination0° 00' 00"
Sunlit
Object was in daylight at TLE epoch
Visualization TLE readout
Latitude31.77393°
Longitude124.46833°
Altitude881.576 km
Speed7.421 km/s
Apparent Right ascension02h 10m 04s
Apparent Declination-1° 56' 20"
Sunlit
Object is in full shadow
Visualization observer readout
Local Sidereal Time10:44:23
Azimuth295.576° NW
Elevation-29.981°
Doppler factor1
Orbital elements
Apogee altitude919.098 km
Perigee altitude855.72 km
Semi-major axis7,265.546 km
Eccentricity0.0043616
Inclination100.1472°
RAAN243.5207°
Arg. of periapsis83.1519°
True anomaly276.96428°
Mean anomaly277.4602°
Eccentric anomaly277.21228°
Mean motion3.50462 °/min
BSTAR0.0017657
Orbital period102.72 mins
Loading maneuver chart data...

THORAD AGENA D DEB Visibility forecast

Observer location: undefined°, undefined

Span
Click to sort rows by Start time (UTC) header in descending order
Start Az.
Max El. time (UTC)
Max El. Az.
Max El.
End time (UTC)
End Az.
9 mins2024-12-26 15:57:02.744Z146.586° SSE2024-12-26 16:01:02.744Z95.045° ESE40.163°2024-12-26 16:06:02.744Z354.333° N
5 mins2024-12-26 17:41:02.744Z238.625° WSW2024-12-26 17:43:02.744Z263.473° W16.76°2024-12-26 17:46:02.744Z299.981° NW
7 mins2024-12-27 04:27:02.744Z57.499° ENE2024-12-27 04:30:02.744Z103.333° ESE23.688°2024-12-27 04:34:02.744Z151.046° SSE
9 mins2024-12-27 06:07:02.744Z355.888° N2024-12-27 06:11:02.744Z294.282° NW33.521°2024-12-27 06:16:02.744Z225.133° WSW
|